Regional Weather Roundup
Issued by NWS Mobile, AL

Home | Current Version | Previous Version | Text Only | Print | Product List | Glossary On
Versions: 1 2 3 4 5 6 7 8 9 10 11 12 13 14 15 16 17 18 19 20 21 22 23 24 25 26 27 28
000
ASUS44 KMOB 250710
RWRMOB
REGIONAL WEATHER ROUNDUP
NATIONAL WEATHER SERVICE MOBILE AL
200 AM CDT FRI APR 25 2014

NOTE: "FAIR" INDICATES FEW OR NO CLOUDS BELOW 12,000 FEET WITH NO
      SIGNIFICANT WEATHER AND/OR OBSTRUCTIONS TO VISIBILITY.

  * THESE STATIONS ARE PART OF THE UNIVERSITY OF SOUTH ALABAMA
    MESONET AND ARE NOT UNDER NWS OR FAA QUALITY CONTROL.

ALZ061>064-250800-
COASTAL ALABAMA

CITY           SKY/WX    TMP DP  RH WIND       PRES   REMARKS
MOBILE REG APT CLOUDY    68  68 100 SW6       29.93F
BROOKLEY FIELD CLOUDY    71  67  87 CALM      29.93F
USA CAMPUS*      N/A     68  66  94 CALM      29.93
DOG RIVER*     NOT AVBL


CITY           SKY/WX    TMP DP  RH WIND       PRES   REMARKS
MOUNT VERNON*  NOT AVBL
SARALAND*      NOT AVBL
BAY MINETTE*   NOT AVBL
LOXLEY*        NOT AVBL
ROBERTSDALE*     N/A    N/A N/A N/A CALM      29.95F
FAIRHOPE*      NOT AVBL
ELBERTA*       NOT AVBL
FOLEY*         NOT AVBL
GRAND BAY*       N/A     70  68  94 S3        29.91F
DAUPHIN ISLND* NOT AVBL
BON SCOUR NWR* NOT AVBL
GULF SHORES    PTCLDY    70  66  88 SW10      29.92F

$$

ALZ051>060-250800-
INTERIOR SOUTHWEST AND SOUTH CENTRAL ALABAMA

CITY           SKY/WX    TMP DP  RH WIND       PRES   REMARKS
GREENVILLE     MOCLDY    66  63  88 SW8       29.93S
EVERGREEN      MOCLDY    67  64  90 S5        29.94F
CASTLEBERRY*   NOT AVBL
ATMORE*          N/A     66  64  94 S5        29.94S
DIXIE*         NOT AVBL
ANDALUSIA/OPP  MOCLDY    69  64  84 W6        29.93F
ANDALUSIA*     NOT AVBL
FLORALA APT    CLOUDY    66  64  93 SW5       29.95S FOG
FLORALA*         N/A     64  63  94 S2        29.93

$$

FLZ001>006-250800-
WESTERN FLORIDA PANHANDLE

CITY           SKY/WX    TMP DP  RH WIND       PRES   REMARKS
PENSACOLA      CLEAR     69  66  90 S7        29.92F
NAS PENSACOLA  CLEAR     70  68  93 SW7       29.92F
MILTON         CLEAR     65  63  93 SW3       29.93F FOG
WHTNG S FIELD  CLEAR     68  65  90 SW5       29.93F FOG


CITY           SKY/WX    TMP DP  RH WIND       PRES   REMARKS
WALNUT HILL*   NOT AVBL
JAY*           NOT AVBL
DUKE FIELD     CLEAR     66  66 100 SW5       29.94R
CRESTVIEW      CLOUDY    62  60  93 CALM      29.95S FOG
VALPARAISO     MOCLDY    70  69  98 SW6       29.94F
DESTIN         CLOUDY    71  67  87 VRB3      29.94R

$$

MSZ076-079-250800-
INTERIOR SOUTHEAST MISSISSIPPI

CITY           SKY/WX    TMP DP  RH WIND       PRES   REMARKS
LEAKESVILLE*     N/A     66  64  94 SW3       29.93
AGRICOLA*      NOT AVBL

$$

MARINE OBSERVATIONS

STATION/POSITION TIME  TEMP    WIND        PRES    WAVE
                       AIR SEA DIR/SP/G            HT/PER
                 (UTC) (F)     (DEG/KT/KT) (MB)    (FT/S)
PASCAGOULA       0700   72     220/  8/ 13 1012.9F
PETIT BOIS ISLND 0700   72     230/ 10/ 12 1013.5F
GRAND BAY        0600   72     220/ 12     1014.0F
KATRINA CUT      0600   71     220/ 15     1014.6F
CEDAR POINT      0500   71     220/ 14     1013.9R
E DAUPHIN ISLAND 0700   71     220/ 10/ 14 1013.1F
MIDDLE BAY LIGHT 0600   72     210/ 17     1013.2F
USCG MOBILE BAY  0700   71 71  220/  2/  7 1012.2F
STATE DOCKS      0700   70 66              1013.0F
MEAHER PARK      0600   70     180/  8     1013.5F
WEEKS BAY        0600   67                   N/A
FORT MORGAN      0700   71     230/ 13/ 14 1013.0F
12 S ORANGE BCH  0700   72 73  230/ 12/ 14 1013.7F   1/ 3
PENSACOLA BAY    0700   72 74  160/  1/  6 1013.8F
64 S DAUPHIN ISL 0605   72 72  210/  6/  6 1014.0F
67 S FORT MORGAN 0600   68                 1014.6S

$$

SELECTED LOCATIONS ACROSS THE REGION

CITY           SKY/WX    TMP DP  RH WIND       PRES   REMARKS
NEW ORLEANS    CLOUDY    71  68  90 SW7       29.92F
GULFPORT       CLOUDY    74  68  81 SW6       29.91F
PASCAGOULA AP  CLOUDY    71  68  90 SW7       29.92F
PASCAGOULA*      N/A     72  70  94 W6        29.92F
HATTIESBURG    CLOUDY    71  66  84 SW6       29.92S
LAUREL         PTCLDY    70  64  83 SW9       29.91F
MERIDIAN       MOCLDY    70  64  81 SW9       29.87F
JACKSON        MOCLDY    71  64  78 N10       29.87S
MONTGOMERY     LGT RAIN  66  61  84 CALM      29.93S
TROY           MOCLDY    64  61  90 CALM      29.93F
KINSTON*       NOT AVBL
GENEVA*          N/A     64  63  94 W2        29.96S
ASHFORD*       NOT AVBL
DOTHAN         CLOUDY    66  63  90 SW8       29.97S
PANAMA CITY    CLOUDY    70  67  90 S7        29.93S

$$




USA.gov is the U.S. government's official web portal to all federal, state and local government web resources and services.